[[{"header":{"parameterUnit":"m.s-1","parameterCategory":1,"la1":30.2991,"la2":30.254,"lo1":-89.0895,"lo2":-89.0444,"dy":0.0017,"dx":0.0017,"nx":28,"ny":28,"refTime":"2024-09-26T09:00:00:Z","depth":0,"parameterNumber":2,"parameterNumberName":"U-component_of_WINDS"},"data":[0,0,0,0,0,0,0,0,0,0,0,0,0,0,0,0,0,0,0,0,0,0,0,0,0,0,0,0,0,0,0,0,0,0,0,0,0,0,0,0,0,0,0,0,0,0,0,0,0,0,0,0,0,0,0,0,0,0,6.1161,6.1163,0,6.1355,6.1357,6.1359,6.1298,6.1294,6.129,6.1286,6.1485,6.1493,6.1502,0,0,0,0,0,0,0,0,0,0,0,0,0,6.0736,6.0744,6.1161,6.1164,6.1166,6.1355,6.1357,6.136,6.1299,6.1294,6.1289,6.1284,6.1482,6.1492,6.1503,0,0,0,0,0,0,0,0,0,0,0,0,0,6.0924,6.0746,6.1161,6.1158,6.116,6.1354,6.1357,6.1361,6.13,6.1294,6.1288,6.1282,6.1478,6.1491,6.1505,6.1713,0,0,6.1547,6.1553,0,0,0,0,0,0,0,0,6.0913,6.094,6.1156,6.1159,6.1161,6.1296,6.128,6.1479,6.1302,6.1247,6.1286,6.1279,6.1427,6.1444,6.1494,6.1722,6.1731,6.1548,6.1556,6.1562,6.1566,0,0,0,0,0,0,0,6.09,6.0931,6.1238,6.1159,6.1162,6.1147,6.1167,6.1317,6.1369,6.1251,6.1247,6.1271,6.1427,6.1481,6.1498,6.1734,6.1547,6.156,6.1568,6.1573,6.2137,6.2143,0,0,0,0,0,0,6.0886,6.0921,6.1232,6.1244,6.102,6.1159,6.1182,6.1259,6.1367,6.1378,6.1276,6.1267,6.1461,6.1483,6.1505,6.1752,6.1562,6.1575,6.1583,6.213,6.2138,6.2146,0,0,0,0,0,0,6.0877,6.0914,6.1224,6.1081,6.1119,6.1173,6.1261,6.1266,6.132,6.1386,6.1395,6.1322,6.1457,6.1486,6.1661,6.1758,6.1581,6.1593,6.2122,6.2133,6.2142,6.225,0,0,0,0,0,0,6.0865,6.0912,6.0992,6.1083,6.1127,6.1377,6.1267,6.1274,6.1344,6.1334,6.1432,6.1442,6.1454,6.164,6.1674,6.1774,6.1604,6.2114,6.2127,6.2139,6.2238,6.2263,6.2284,0,0,0,0,0,6.085,6.1016,6.0997,6.1034,6.1229,6.1383,6.1408,6.1419,6.1352,6.1432,6.1474,6.1439,6.1743,6.1659,6.1696,6.1802,6.2107,6.2123,6.2138,6.2228,6.2258,6.2283,0,0,0,0,0,0,6.0936,6.1028,6.1008,6.1208,6.1288,6.1372,6.1474,6.1451,6.1552,6.1539,6.1548,6.157,6.1749,6.1793,6.1698,6.2006,6.1915,6.1938,6.197,6.2,6.2022,6.2006,6.1615,0,0,0,0,0,6.0978,6.1096,6.117,6.1339,6.138,6.1421,6.1488,6.1489,6.1573,6.1606,6.1661,6.1743,6.1856,6.1931,6.2039,6.2245,6.2263,6.2335,6.2358,6.2377,6.2396,6.2503,6.2535,6.2196,6.2195,6.2195,0,0,6.1066,6.1131,6.1205,6.1358,6.142,6.154,6.145,6.1582,6.167,6.1626,6.1793,6.1836,6.1928,6.2118,6.2204,6.216,6.2494,6.2396,6.241,6.242,6.2522,6.2554,6.2583,6.2206,6.2204,6.2202,0,0,6.1287,6.135,6.1496,6.1559,6.1654,6.1679,6.1714,6.1802,6.1828,6.1996,6.1964,6.207,6.2266,6.2331,6.239,6.2633,6.2602,6.2668,6.2787,6.2891,6.2918,6.2941,6.3024,6.3054,6.2688,6.2688,6.2688,0,6.1385,6.1565,6.1574,6.1707,6.1774,6.1739,6.1885,6.1947,6.2072,6.2118,6.2067,6.231,6.237,6.2572,6.263,6.2681,6.2719,6.2656,6.2913,6.2937,6.2959,6.3038,6.3069,6.2695,6.2694,6.2693,6.2693,0,6.1678,6.1804,6.191,6.203,6.2109,6.2249,6.2277,6.2355,6.2349,6.2379,6.2548,6.2618,6.2738,6.2787,6.2783,6.2988,6.2957,6.291,6.2818,6.2998,6.3072,6.3103,6.2705,6.2703,6.27,6.2699,0,0,6.1959,6.208,6.2119,6.2171,6.2271,6.2368,6.2505,6.2621,6.2686,6.2774,6.2886,6.3052,6.3008,6.3075,6.3078,6.317,6.3352,6.3111,6.3113,6.315,6.3577,6.3609,6.3644,6.3334,6.3339,6.3344,6.3568,0,6.2185,6.2425,6.2435,6.2653,6.2766,6.2734,6.2852,6.2926,6.2957,6.3057,6.3091,6.3207,6.3142,6.3181,6.3272,6.3311,6.3437,6.3296,6.3436,6.344,6.341,6.3683,6.3718,6.3926,6.3597,6.3602,6.3606,0,6.2482,6.2576,6.2805,6.2885,6.2933,6.304,6.3145,6.3242,6.3323,6.3339,6.3413,6.3401,6.3539,6.3444,6.3631,6.3534,6.3592,6.362,6.3628,6.3639,6.3532,6.3698,6.3993,6.4022,6.3652,6.3648,6.3645,0,6.2658,6.2843,6.3002,6.3049,6.3148,6.3222,6.3267,6.3343,6.3411,6.3503,6.3546,6.3654,6.3712,6.3795,6.3812,6.3742,6.3998,6.3906,6.4013,6.4012,6.4066,6.4062,6.4371,6.411,6.4109,6.4109,6.4108,0,6.2908,6.3049,6.3082,6.318,6.3335,6.3345,6.3498,6.3537,6.3604,6.3707,6.3687,6.3784,6.3802,6.3903,6.3918,6.4068,6.4096,6.411,6.4112,6.411,6.4108,6.4146,6.4131,6.4117,6.4115,6.4114,6.4112,0,6.3131,6.316,6.333,6.3409,6.3432,6.3543,6.3609,6.3702,6.373,6.386,6.3892,6.3936,6.4053,6.4078,6.4219,6.4228,6.4405,6.4395,6.4377,6.4375,6.4479,6.4467,6.482,6.4865,6.4578,6.4581,6.4583,0,6.3287,6.3393,6.3483,6.355,6.3598,6.3707,6.3775,6.3789,6.3861,6.396,6.404,6.4154,6.4246,6.4434,6.4478,6.4583,6.4573,6.4689,6.4589,6.4582,6.457,6.4561,6.457,6.4708,6.4711,6.4713,6.4715,0,6.3559,6.3567,6.3667,6.3771,6.3852,6.3935,6.4014,6.407,6.4094,6.4175,6.4294,6.4365,6.4506,6.4618,6.4724,6.4768,6.4745,6.4747,6.4776,6.4774,6.4758,6.4764,6.4425,6.4738,6.4736,6.4734,6.4733,6.4732,6.3751,6.3842,6.3918,6.4028,6.4088,6.4161,6.4251,6.4289,6.4388,6.4503,6.4505,6.4634,6.4709,6.4848,6.4899,6.4998,6.4962,6.5006,6.5016,6.5026,6.5033,6.4745,6.5018,6.5017,6.5017,6.5016,6.5016,0,6.4018,6.4065,6.4166,6.4275,6.4361,6.4332,6.4417,6.449,6.4603,6.4676,6.4766,6.49,6.5009,6.506,6.5166,6.5236,6.5228,6.5263,6.5256,6.5266,6.5062,6.5023,6.5268,6.5268,6.5268,6.5268,6.5267,6.5267,6.4167,6.4318,6.4335,6.4515,6.4561,6.4685,6.4736,6.4802,6.4859,6.501,6.5099,6.5132,6.5195,6.5305,6.5402,6.5414,6.5453,6.5493,6.5499,6.5307,6.5281,6.5257,6.522,6.5502,6.5502,6.5695,6.5697,6.5698]},{"header":{"parameterUnit":"m.s-1","parameterCategory":1,"la1":30.2991,"la2":30.254,"lo1":-89.0895,"lo2":-89.0444,"dy":0.0017,"dx":0.0017,"nx":28,"ny":28,"refTime":"2024-09-26T09:00:00:Z","depth":0,"parameterNumber":3,"parameterNumberName":"V-component_of_WINDS"},"data":[0,0,0,0,0,0,0,0,0,0,0,0,0,0,0,0,0,0,0,0,0,0,0,0,0,0,0,0,0,0,0,0,0,0,0,0,0,0,0,0,0,0,0,0,0,0,0,0,0,0,0,0,0,0,0,0,0,0,3.8315,3.8315,0,3.8284,3.8284,3.8283,3.8207,3.8205,3.8204,3.8202,3.8171,3.8171,3.8172,0,0,0,0,0,0,0,0,0,0,0,0,0,3.8308,3.8309,3.8315,3.8315,3.8314,3.8284,3.8284,3.8283,3.8207,3.8205,3.8203,3.8202,3.8171,3.8171,3.8172,0,0,0,0,0,0,0,0,0,0,0,0,0,3.8298,3.8309,3.8315,3.8273,3.8269,3.8284,3.8284,3.8283,3.8208,3.8205,3.8203,3.8201,3.817,3.8171,3.8172,3.8226,0,0,3.8175,3.8176,0,0,0,0,0,0,0,0,3.8298,3.8298,3.8279,3.8276,3.8271,3.8247,3.8269,3.8264,3.8208,3.8231,3.8202,3.8199,3.8198,3.8197,3.8196,3.8225,3.8224,3.8175,3.8176,3.8176,3.8177,0,0,0,0,0,0,0,3.8299,3.8299,3.8303,3.8279,3.8274,3.8255,3.8251,3.8268,3.8228,3.8229,3.8223,3.822,3.8195,3.8195,3.8195,3.8223,3.8175,3.8176,3.8177,3.8177,3.8293,3.8295,0,0,0,0,0,0,3.8306,3.83,3.8304,3.8302,3.8279,3.8257,3.8253,3.8257,3.8228,3.8221,3.8223,3.8217,3.8195,3.8194,3.8193,3.8253,3.8176,3.8177,3.8178,3.829,3.8293,3.8296,0,0,0,0,0,0,3.8306,3.8307,3.8305,3.8299,3.8298,3.826,3.8266,3.8258,3.8258,3.8223,3.8216,3.823,3.8193,3.8192,3.8218,3.8251,3.8178,3.8179,3.8287,3.8291,3.8294,3.8374,0,0,0,0,0,0,3.8306,3.8308,3.8328,3.83,3.8298,3.8331,3.8268,3.8259,3.8259,3.8252,3.8228,3.8222,3.8191,3.8217,3.8219,3.8251,3.8179,3.8284,3.8289,3.8293,3.8369,3.838,3.839,0,0,0,0,0,3.8306,3.8352,3.8329,3.833,3.8323,3.8333,3.8332,3.8295,3.8263,3.8282,3.826,3.8223,3.8247,3.8221,3.8222,3.8255,3.8282,3.8288,3.8293,3.8364,3.8378,3.839,0,0,0,0,0,0,3.8385,3.8348,3.8322,3.8361,3.8351,3.832,3.8344,3.8312,3.8311,3.8304,3.8258,3.8254,3.8286,3.8273,3.8244,3.8305,3.8258,3.8265,3.8312,3.8325,3.8336,3.8337,3.818,0,0,0,0,0,3.8407,3.8418,3.8385,3.8422,3.8418,3.8383,3.8386,3.8358,3.8346,3.8341,3.8321,3.831,3.8315,3.832,3.8323,3.8367,3.8359,3.839,3.8401,3.841,3.8415,3.8436,3.8448,3.8314,3.8314,3.8314,0,0,3.8452,3.8433,3.8443,3.8438,3.8427,3.8439,3.8379,3.8395,3.8403,3.8343,3.8366,3.8351,3.8336,3.8371,3.8386,3.8362,3.8451,3.8417,3.8425,3.8425,3.8443,3.8455,3.8467,3.8318,3.8317,3.8317,0,0,3.8541,3.8528,3.8557,3.8547,3.853,3.8506,3.8513,3.8487,3.8474,3.8497,3.8451,3.8461,3.8471,3.8462,3.8458,3.8542,3.8507,3.8544,3.8601,3.8621,3.8632,3.8641,3.8669,3.868,3.855,3.855,3.8551,0,3.8599,3.8615,3.8576,3.8594,3.8592,3.8538,3.8566,3.8558,3.8544,3.8544,3.8517,3.8527,3.8514,3.8545,3.8565,3.8565,3.857,3.8546,3.8634,3.8642,3.865,3.8676,3.8687,3.8555,3.8554,3.8554,3.8554,0,3.8687,3.8699,3.8724,3.8711,3.8712,3.8735,3.8698,3.8704,3.8677,3.8655,3.8678,3.8659,3.8657,3.8662,3.8636,3.8689,3.8674,3.8642,3.8594,3.8668,3.8692,3.8702,3.8561,3.856,3.8558,3.8557,0,0,3.8824,3.8787,3.8797,3.8789,3.8767,3.8776,3.8796,3.8793,3.8798,3.879,3.8805,3.8815,3.8783,3.878,3.8752,3.877,3.8835,3.8734,3.8733,3.8752,3.889,3.8914,3.8926,3.8812,3.8814,3.8816,3.8891,0,3.8905,3.8937,3.8901,3.8941,3.895,3.8899,3.8917,3.8905,3.8885,3.889,3.8868,3.8875,3.8834,3.8831,3.8847,3.8824,3.8862,3.8818,3.8824,3.8825,3.8828,3.8939,3.8964,3.9036,3.89,3.8902,3.8903,0,3.9004,3.9,3.904,3.9013,3.9016,3.9033,3.9026,3.9032,3.9017,3.9001,3.8997,3.8963,3.898,3.8935,3.8957,3.8928,3.8929,3.8918,3.892,3.8917,3.8867,3.8938,3.9059,3.9069,3.8918,3.8916,3.8915,0,3.9097,3.9102,3.9125,3.9121,3.9092,3.9104,3.9092,3.9075,3.9075,3.9069,3.9069,3.9066,3.9064,3.9062,3.9028,3.8998,3.9054,3.9006,3.904,3.9041,3.9053,3.9052,3.9173,3.9056,3.9056,3.9056,3.9056,0,3.919,3.9217,3.9167,3.9181,3.9209,3.9168,3.9196,3.9179,3.9164,3.9173,3.913,3.914,3.9095,3.91,3.9074,3.9095,3.9095,3.9082,3.9074,3.9085,3.9086,3.9083,3.9077,3.9059,3.9058,3.9058,3.9057,0,3.9298,3.9266,3.9289,3.9259,3.9252,3.9273,3.9247,3.9259,3.9236,3.9249,3.925,3.9214,3.9218,3.9184,3.9182,3.9164,3.9197,3.9181,3.9202,3.9196,3.9231,3.9227,3.9353,3.9367,3.9243,3.9245,3.9246,0,3.9359,3.9378,3.9349,3.9353,3.9343,3.9349,3.9349,3.9309,3.931,3.9294,3.9308,3.9308,3.9305,3.9314,3.9287,3.9285,3.9268,3.9312,3.9267,3.9276,3.9266,3.9264,3.9265,3.9321,3.9323,3.9324,3.9325,0,3.947,3.9452,3.9453,3.9449,3.9449,3.9444,3.9435,3.944,3.9397,3.9401,3.9403,3.9402,3.9399,3.9399,3.9391,3.9378,3.9344,3.9339,3.9347,3.9357,3.9367,3.9359,3.9225,3.9336,3.9335,3.9334,3.9334,3.9333,3.9554,3.9568,3.9549,3.9551,3.9541,3.9534,3.9543,3.9521,3.9523,3.9517,3.9493,3.95,3.9483,3.9469,3.946,3.9464,3.9443,3.9454,3.9456,3.9459,3.9464,3.9368,3.9463,3.9463,3.9462,3.9462,3.9462,0,3.966,3.9646,3.9648,3.9637,3.9639,3.9607,3.9595,3.9599,3.9605,3.9592,3.9591,3.9594,3.9593,3.9567,3.9563,3.9572,3.9556,3.9572,3.957,3.9567,3.9485,3.9478,3.9585,3.9585,3.9584,3.9584,3.9584,3.9584,3.9716,3.9736,3.9717,3.9731,3.9716,3.9723,3.9719,3.9711,3.9701,3.9706,3.9705,3.9688,3.9669,3.9663,3.9661,3.9653,3.9653,3.9674,3.9661,3.9585,3.9573,3.9561,3.9555,3.9675,3.9675,3.9742,3.9743,3.9743]}]]